Location: Dalton Gardens
(47.7327°N, 116.7697°W)
Time: 02:20:07
(UTC+00:00)

Tiangong - Visible Passes

Search period start: 17 April 2024 00:00
Search period end: 27 April 2024 00:00
Orbit: 371 x 380 km, 41.5° (Epoch: 16 April)

Date Brightness Start Highest point End Pass type
(mag) Time Alt. Az. Time Alt. Az. Time Alt. Az.
18 Apr 0.5 04:36:36 10° SW 04:36:44 11° SSW 04:36:44 11° SSW visible
19 Apr -0.2 03:34:40 10° SSW 03:36:29 15° SSE 03:37:33 13° SE visible
20 Apr -0.8 04:07:30 10° SW 04:10:01 22° S 04:10:09 22° SSE visible
21 Apr -0.4 04:40:56 10° WSW 04:42:35 21° SSW 04:42:35 21° SSW visible
22 Apr -0.8 03:38:18 10° SW 03:40:53 24° S 03:42:48 14° SE visible
22 Apr 0.7 05:14:38 10° WSW 05:14:49 11° WSW 05:14:49 11° WSW visible
23 Apr -0.8 04:11:46 10° WSW 04:14:19 24° S 04:14:55 22° SSE visible
24 Apr 0.0 04:45:33 10° WSW 04:46:56 16° SW 04:46:56 16° SW visible
25 Apr -0.5 03:42:26 10° WSW 03:44:51 21° S 03:46:53 12° SE visible
26 Apr 0.1 04:16:27 10° SW 04:18:00 13° SSW 04:18:46 12° S visible
